METHANESAT

导读

METHANESAT是由美国主导开发的甲烷监测卫星,于2024年3月4日在加州范登堡太空基地发射升空。该卫星由跨领域团队耗资约8800万美元打造,核心任务是精确定位全球石油天然气田、农业设施、垃圾填埋场的甲烷排放热点,配合谷歌AI与大气模型追溯泄漏源,所有观测数据将免费向全球开放,为气候变化治理提供精准数据支撑。

基本信息
目录编号:
59101
目录名称:
METHANESAT
国际标识:
2024-043D
轨道中心:
EARTH
卫星名称:
METHANESAT
卫星全名:
--
卫星状态:
在轨 (已飞行922 天)
发射日期:
2024-03-04 UTC
国别 :
美国 (US)
星等 :
--
该卫星已列入 空间交会检测服务 Space Conjunction Data Service (SCDS) ,当前飞行风险评估等级: 无高风险
轨道信息
数据来源 国际轨道数据
星历时间: 2026-09-12T06:43:35+0800
21小时前
查看轨道信息
半长轴: 6949.871km
偏心率: 0.0011296
轨道倾角: 97.857°
近地点辐角 78.996°
升交点赤经 26.497°
平近点角 281.253°
近地点: 563.883km
远地点: 579.585km
周期: 96.100分钟
每日圈数: 14.984343
详细信息
使用方式:
暂无
2D轨道图
3D轨道图
轨道高度分析图
轨道倾角分析图
轨道综合分析图
查看轨道综合分析图
交会数据列表
事件ID 空间交会对象 最接近时刻(TCA) 交会距离 交会风险概率(CRP) 交会风险指数(CRI) 操作
CDM_260915-024705-677805-910121
2026-09-15T
02:47:51+0000
1.260 km
极远距离
1.228634E-5 中风险 0.57
与全量物体交会距离演化趋势
与全量物体交会风险概率演化趋势